K4AVM-13 Weather Reports


time (UTC)temp
C
wind
direction
speed
KPH
gust
KPH
rain 1hr
cm
rain 24hr
cm
rain mn
cm
humidity
%
barometer
mb
20260904090705 24 242 0.0 0.0 0.00 0.00 0.00 92 1015.7
20260904090201 24 242 0.0 0.0 0.00 0.00 0.00 91 1015.8
20260904085655 24 248 0.0 0.0 0.00 0.00 0.00 91 1015.8
20260904085150 24 248 0.0 0.0 0.00 0.00 0.00 91 1015.8
20260904084645 24 248 0.0 0.0 0.00 0.00 0.00 91 1015.6
20260904084142 25 217 0.0 0.0 0.00 0.00 0.00 90 1015.6
20260904083638 25 217 0.0 0.0 0.00 0.00 0.00 90 1015.7
20260904083133 25 219 0.0 0.0 0.00 0.00 0.00 89 1015.5
20260904082628 25 219 0.0 0.0 0.00 0.00 0.00 89 1015.6
20260904082124 25 260 0.0 0.0 0.00 0.00 0.00 89 1015.6
20260904081619 25 217 0.0 0.0 0.00 0.00 0.00 88 1015.5
20260904081114 25 215 0.0 0.0 0.00 0.00 0.00 88 1015.5
20260904080610 25 202 0.0 0.0 0.00 0.00 0.00 88 1015.3
20260904080106 25 198 0.0 0.0 0.00 0.00 0.00 87 1015.3
20260904075601 25 339 0.0 1.6 0.00 0.00 0.00 87 1015.5
20260904075056 25 198 0.0 0.0 0.00 0.00 0.00 87 1015.3
20260904074555 25 211 0.0 0.0 0.00 0.00 0.00 86 1015.5
20260904074050 25 238 0.0 0.0 0.00 0.00 0.00 85 1015.3
20260904073545 26 254 0.0 0.0 0.00 0.00 0.00 85 1015.3
20260904073041 26 191 0.0 0.0 0.00 0.00 0.00 84 1015.3
20260904072537 26 212 0.0 3.2 0.00 0.00 0.00 84 1014.8
20260904072032 26 259 0.0 0.0 0.00 0.00 0.00 83 1015.0
20260904071527 26 215 0.0 0.0 0.00 0.00 0.00 83 1015.1
20260904071022 26 213 0.0 0.0 0.00 0.00 0.00 82 1015.1
20260904070521 26 213 0.0 1.6 0.00 0.00 0.00 82 1015.1
20260904070015 26 167 1.6 1.6 0.00 0.00 0.00 81 1015.1
20260904065510 26 239 0.0 0.0 0.00 0.00 0.00 81 1015.3
20260904065007 26 227 0.0 4.8 0.00 0.00 0.00 80 1015.3
20260904064503 26 339 3.2 4.8 0.00 0.00 0.00 81 1015.3
20260904063957 27 215 0.0 3.2 0.00 0.00 0.00 82 1015.3
20260904063454 27 243 0.0 4.8 0.00 0.00 0.00 81 1015.2
20260904062954 27 343 0.0 1.6 0.00 0.00 0.00 81 1015.4
20260904062450 27 60 3.2 3.2 0.00 0.00 0.00 82 1015.7
20260904061945 27 27 3.2 6.4 0.00 0.00 0.00 82 1015.9
20260904061442 28 356 4.8 4.8 0.00 0.00 0.00 82 1016.1
20260904060937 28 294 0.0 1.6 0.00 0.00 0.00 81 1016.4
20260904060433 28 0 4.8 11.3 0.00 0.00 0.00 80 1016.5
20260904055929 28 321 1.6 1.6 0.00 0.00 0.00 79 1016.2
20260904055424 28 6 9.7 14.5 0.00 0.00 0.00 80 1016.4
20260904054920 27 250 0.0 0.0 0.00 0.00 0.00 81 1015.6
20260904054415 28 256 0.0 0.0 0.00 0.00 0.00 82 1015.3
20260904053911 28 240 0.0 0.0 0.00 0.00 0.00 81 1015.1
20260904053410 28 259 0.0 3.2 0.00 0.00 0.00 81 1015.1
20260904052906 28 250 0.0 1.6 0.00 0.00 0.00 81 1015.2
20260904052402 28 233 0.0 0.0 0.00 0.00 0.00 82 1014.8
20260904051859 28 240 0.0 3.2 0.00 0.00 0.00 81 1015.0
20260904051354 28 181 1.6 3.2 0.00 0.00 0.00 82 1015.1
20260904050848 28 219 0.0 1.6 0.00 0.00 0.00 83 1015.1
20260904050345 28 223 1.6 3.2 0.00 0.00 0.00 84 1015.4
20260904045845 27 219 1.6 1.6 0.00 0.00 0.00 86 1015.4
20260904045340 27 239 0.0 3.2 0.00 0.00 0.00 86 1015.4
20260904044840 27 198 3.2 4.8 0.00 0.00 0.00 85 1015.4
20260904044337 27 220 0.0 1.6 0.00 0.00 0.00 86 1015.5
20260904043833 27 162 0.0 1.6 0.00 0.00 0.00 86 1015.5
20260904043329 27 231 0.0 0.0 0.00 0.00 0.00 88 1015.4
20260904042830 27 240 0.0 0.0 0.00 0.00 0.00 88 1015.6
20260904042326 27 159 1.6 1.6 0.00 0.00 0.00 89 1015.8
20260904041826 26 217 0.0 0.0 0.00 0.00 0.00 89 1015.7
20260904041322 26 219 0.0 0.0 0.00 0.00 0.00 89 1015.7
20260904040817 26 232 0.0 0.0 0.00 0.00 0.00 89 1015.7
20260904040313 26 235 0.0 0.0 0.00 0.00 0.00 89 1015.6
20260904035809 26 235 0.0 0.0 0.00 0.03 0.03 88 1015.8
20260904035306 26 231 0.0 0.0 0.00 0.03 0.03 88 1015.8
20260904034803 27 231 0.0 0.0 0.00 0.03 0.03 87 1015.6
20260904034259 27 210 0.0 1.6 0.00 0.03 0.03 87 1015.9
20260904033755 27 246 0.0 0.0 0.00 0.03 0.03 87 1015.9
20260904033251 27 246 0.0 0.0 0.00 0.03 0.03 86 1016.0
20260904032748 27 245 0.0 0.0 0.00 0.03 0.03 86 1016.2
20260904032246 27 246 0.0 0.0 0.00 0.03 0.03 86 1016.0
20260904031741 27 235 0.0 0.0 0.00 0.03 0.03 87 1015.8
20260904031236 27 233 0.0 0.0 0.00 0.03 0.03 87 1016.0
20260904030726 27 248 0.0 0.0 0.00 0.03 0.03 87 1015.9
20260904030221 27 250 0.0 0.0 0.00 0.03 0.03 87 1015.9
20260904025718 27 242 0.0 0.0 0.00 0.03 0.03 87 1015.9
20260904025212 27 235 0.0 0.0 0.00 0.03 0.03 87 1015.7
20260904024708 27 233 0.0 0.0 0.00 0.03 0.03 87 1015.8
20260904024203 27 225 0.0 0.0 0.00 0.03 0.03 87 1016.0
20260904023659 27 219 0.0 0.0 0.00 0.03 0.03 87 1015.9
20260904023155 27 224 0.0 0.0 0.00 0.03 0.03 86 1015.6
20260904022649 27 224 0.0 0.0 0.00 0.03 0.03 86 1015.8
20260904022146 28 219 0.0 0.0 0.00 0.03 0.03 86 1015.7
20260904021641 28 219 0.0 0.0 0.00 0.03 0.03 85 1015.6
20260904021136 28 159 0.0 1.6 0.00 0.03 0.03 86 1015.5
20260904020633 28 235 0.0 1.6 0.00 0.03 0.03 86 1015.8
20260904020126 28 198 3.2 3.2 0.00 0.03 0.03 87 1015.9
20260904015621 27 189 1.6 1.6 0.00 0.03 0.03 89 1016.0
20260904015119 27 227 0.0 0.0 0.00 0.03 0.03 91 1016.1
20260904014614 27 221 0.0 0.0 0.00 0.03 0.03 91 1016.0
20260904014109 27 227 0.0 0.0 0.00 0.03 0.03 92 1016.0
20260904013606 27 227 0.0 0.0 0.00 0.03 0.03 92 1016.2
20260904013057 27 233 0.0 0.0 0.00 0.03 0.03 92 1016.0
20260904012556 27 254 0.0 0.0 0.00 0.03 0.03 92 1016.3
20260904012056 27 246 0.0 0.0 0.00 0.03 0.03 92 1016.2
20260904011549 27 246 0.0 0.0 0.00 0.03 0.03 92 1016.4
20260904011045 27 246 0.0 0.0 0.00 0.03 0.03 92 1016.2
20260904010541 27 246 0.0 0.0 0.00 0.03 0.03 91 1016.6
20260904010038 27 246 0.0 0.0 0.00 0.03 0.03 91 1016.5
20260904005537 27 246 0.0 0.0 0.00 0.03 0.03 91 1016.6
20260904005027 27 246 0.0 0.0 0.00 0.03 0.03 91 1016.4
20260904004523 27 246 0.0 0.0 0.00 0.03 0.03 91 1016.5
20260904004023 28 246 0.0 0.0 0.00 0.03 0.03 90 1016.2
20260904003519 28 246 0.0 0.0 0.00 0.03 0.03 90 1016.4
20260904003014 28 250 0.0 0.0 0.00 0.03 0.03 89 1016.4
20260904002510 28 250 0.0 0.0 0.00 0.03 0.03 89 1016.4
20260904002009 28 250 0.0 0.0 0.00 0.03 0.03 88 1016.2
20260904001505 28 250 0.0 0.0 0.00 0.03 0.03 88 1016.1
20260904000959 28 250 0.0 0.0 0.00 0.03 0.03 87 1016.1
20260904000458 28 250 0.0 0.0 0.00 0.03 0.03 87 1015.8
20260903235954 28 250 0.0 0.0 0.00 0.03 0.03 86 1016.0
20260903235449 28 250 0.0 0.0 0.00 0.03 0.03 85 1015.6
20260903234944 29 250 0.0 0.0 0.00 0.03 0.03 85 1015.5
20260903234440 29 250 0.0 0.0 0.00 0.03 0.03 84 1015.6
20260903233936 29 250 0.0 0.0 0.00 0.03 0.03 83 1015.6
20260903233431 30 239 0.0 0.0 0.00 0.03 0.03 83 1015.4
20260903232926 30 235 0.0 0.0 0.00 0.03 0.03 82 1015.4
20260903232420 30 244 0.0 0.0 0.00 0.03 0.03 81 1015.4
20260903231915 30 243 0.0 0.0 0.00 0.03 0.03 81 1015.7
20260903231410 30 243 0.0 0.0 0.00 0.03 0.03 80 1015.4
20260903230905 30 243 0.0 0.0 0.00 0.03 0.03 79 1015.6
20260903230400 31 243 0.0 0.0 0.00 0.03 0.03 79 1015.5
20260903225856 31 245 0.0 0.0 0.00 0.03 0.03 78 1015.3
20260903225352 31 240 0.0 0.0 0.00 0.03 0.03 79 1015.3
20260903224848 31 239 0.0 0.0 0.00 0.03 0.03 78 1015.3
20260903224343 31 238 0.0 0.0 0.00 0.03 0.03 77 1015.2
20260903223839 31 238 0.0 0.0 0.00 0.03 0.03 76 1015.3
20260903223337 31 242 0.0 0.0 0.00 0.03 0.03 75 1015.3
20260903222832 32 230 0.0 0.0 0.00 0.03 0.03 73 1015.2
20260903222326 32 234 0.0 0.0 0.00 0.03 0.03 72 1015.2
20260903221821 32 234 0.0 0.0 0.00 0.03 0.03 71 1015.3
20260903221320 32 235 0.0 0.0 0.00 0.03 0.03 71 1015.3
20260903220818 33 237 0.0 0.0 0.00 0.03 0.03 68 1015.3
20260903220312 33 226 0.0 0.0 0.00 0.03 0.03 67 1015.4
20260903215805 33 212 0.0 0.0 0.00 0.03 0.03 66 1015.5
20260903215305 33 222 0.0 0.0 0.00 0.03 0.03 65 1015.6
20260903214759 34 220 0.0 1.6 0.00 0.03 0.03 64 1015.5
20260903214256 34 228 0.0 1.6 0.00 0.03 0.03 61 1015.5
20260903213750 35 191 1.6 3.2 0.00 0.03 0.03 62 1015.4
20260903213246 35 222 0.0 1.6 0.00 0.03 0.03 60 1015.2
20260903212742 35 209 0.0 1.6 0.00 0.03 0.03 60 1015.5
20260903212238 35 202 0.0 0.0 0.00 0.03 0.03 60 1015.4
20260903211736 35 192 0.0 1.6 0.00 0.03 0.03 58 1015.5
20260903211228 35 185 0.0 1.6 0.00 0.03 0.03 61 1015.5
20260903210724 35 188 0.0 3.2 0.00 0.03 0.03 59 1015.6
20260903210219 35 191 1.6 3.2 0.00 0.03 0.03 59 1015.7
20260903205719 35 177 1.6 1.6 0.00 0.03 0.03 58 1015.7
20260903205218 35 218 0.0 0.0 0.00 0.03 0.03 58 1015.6
20260903204713 35 166 0.0 1.6 0.00 0.03 0.03 61 1015.9
20260903204210 35 237 1.6 4.8 0.00 0.03 0.03 61 1015.9
20260903203705 35 66 1.6 1.6 0.00 0.03 0.03 59 1015.8
20260903203159 35 237 1.6 3.2 0.00 0.03 0.03 59 1015.9
20260903202654 35 228 0.0 6.4 0.00 0.03 0.03 60 1015.7
20260903202150 35 177 1.6 4.8 0.00 0.03 0.03 61 1016.0
20260903201644 35 116 3.2 4.8 0.00 0.03 0.03 57 1016.0
20260903201143 35 25 1.6 1.6 0.00 0.03 0.03 57 1016.1
20260903200638 35 159 3.2 4.8 0.00 0.03 0.03 55 1016.1
20260903200134 36 236 0.0 1.6 0.00 0.03 0.03 56 1016.4
20260903195629 36 218 0.0 1.6 0.00 0.03 0.03 54 1016.3
20260903195125 36 239 0.0 0.0 0.00 0.03 0.03 50 1016.3
20260903194620 36 203 0.0 0.0 0.00 0.03 0.03 50 1016.4
20260903194120 36 239 0.0 4.8 0.00 0.03 0.03 54 1016.5
20260903193616 36 61 1.6 3.2 0.00 0.03 0.03 53 1016.5
20260903193111 36 208 1.6 3.2 0.00 0.03 0.03 52 1016.3
20260903192608 36 112 1.6 3.2 0.00 0.03 0.03 53 1016.5
20260903192103 35 121 0.0 1.6 0.00 0.03 0.03 56 1016.7
20260903191600 36 110 6.4 6.4 0.00 0.03 0.03 55 1016.7
20260903191054 37 269 3.2 4.8 0.00 0.03 0.03 52 1017.0
20260903190554 36 242 0.0 1.6 0.00 0.03 0.03 56 1016.7
20260903190053 35 348 1.6 3.2 0.00 0.03 0.03 57 1016.7
20260903185548 36 227 0.0 3.2 0.00 0.03 0.03 56 1017.1
20260903185044 36 165 1.6 1.6 0.00 0.03 0.03 58 1017.2
20260903184540 35 225 1.6 3.2 0.00 0.03 0.03 58 1017.1
20260903184035 35 238 0.0 3.2 0.00 0.03 0.03 58 1017.4
20260903183534 35 239 0.0 1.6 0.00 0.03 0.03 59 1017.3
20260903183030 35 230 0.0 3.2 0.00 0.03 0.03 62 1017.4
20260903182528 35 228 0.0 3.2 0.00 0.03 0.03 62 1017.4
20260903182025 34 248 0.0 1.6 0.00 0.03 0.03 66 1017.5
20260903181523 35 327 1.6 3.2 0.00 0.03 0.03 63 1017.5
20260903181023 35 242 0.0 1.6 0.00 0.03 0.03 61 1017.5
20260903180513 35 233 0.0 1.6 0.00 0.03 0.03 63 1017.7
20260903180012 35 199 0.0 3.2 0.00 0.03 0.03 64 1017.9
20260903175511 34 29 0.0 3.2 0.00 0.03 0.03 65 1018.0
20260903175010 34 266 0.0 1.6 0.00 0.03 0.03 64 1018.0
20260903174505 33 252 0.0 1.6 0.00 0.03 0.03 68 1017.9
20260903174001 35 353 3.2 4.8 0.00 0.03 0.03 64 1017.9
20260903173455 35 41 0.0 4.8 0.00 0.03 0.03 66 1017.9
20260903172951 33 190 0.0 1.6 0.00 0.03 0.03 68 1018.1
20260903172446 34 283 1.6 3.2 0.00 0.03 0.03 68 1018.1
20260903171941 33 259 1.6 4.8 0.00 0.03 0.03 70 1017.9
20260903171431 33 342 1.6 1.6 0.00 0.03 0.03 68 1018.0
20260903170931 33 230 0.0 1.6 0.00 0.03 0.03 71 1018.1
20260903170425 32 222 1.6 1.6 0.00 0.03 0.03 72 1018.1
20260903165924 33 244 1.6 1.6 0.00 0.03 0.03 70 1018.3
20260903165419 33 229 0.0 4.8 0.00 0.03 0.03 71 1018.2
20260903164919 33 294 1.6 4.8 0.00 0.03 0.03 70 1018.5
20260903164413 32 212 0.0 1.6 0.00 0.03 0.03 72 1018.4
20260903163908 32 119 1.6 1.6 0.00 0.03 0.03 73 1018.6
20260903163404 33 83 3.2 4.8 0.00 0.03 0.03 72 1018.5
20260903162900 32 215 0.0 3.2 0.00 0.03 0.03 72 1018.6
20260903162356 32 8 3.2 4.8 0.00 0.03 0.03 72 1018.7
20260903161852 32 36 1.6 3.2 0.00 0.03 0.03 68 1018.8
20260903161347 32 255 0.0 4.8 0.00 0.03 0.03 72 1018.7
20260903160843 32 223 0.0 1.6 0.00 0.03 0.03 73 1018.8
20260903160341 32 267 0.0 1.6 0.00 0.03 0.03 71 1018.9
20260903155840 32 239 1.6 1.6 0.00 0.03 0.03 72 1018.8
20260903155336 31 343 1.6 1.6 0.00 0.03 0.03 73 1018.8
20260903154831 31 260 0.0 3.2 0.00 0.03 0.03 74 1019.1
20260903154327 31 333 0.0 1.6 0.00 0.03 0.03 76 1018.9
20260903153822 31 251 0.0 1.6 0.00 0.03 0.03 75 1018.8
20260903153318 31 242 1.6 3.2 0.00 0.03 0.03 77 1018.9
20260903152814 30 222 0.0 1.6 0.00 0.03 0.03 77 1018.9
20260903152309 31 322 1.6 3.2 0.00 0.03 0.03 77 1018.8
20260903151804 30 240 0.0 0.0 0.00 0.03 0.03 80 1019.0
20260903151300 31 320 3.2 4.8 0.00 0.03 0.03 77 1018.8
20260903150759 31 183 0.0 1.6 0.00 0.03 0.03 78 1018.9
20260903150254 31 295 1.6 3.2 0.00 0.03 0.03 79 1018.8
20260903145750 31 351 1.6 4.8 0.00 0.03 0.03 78 1018.8
20260903145245 31 235 0.0 3.2 0.00 0.03 0.03 79 1018.7
20260903144743 31 75 1.6 6.4 0.00 0.03 0.03 77 1018.7
20260903144239 31 348 0.0 3.2 0.00 0.03 0.03 77 1018.5
20260903143735 31 94 1.6 3.2 0.00 0.03 0.03 77 1018.7
20260903143231 31 202 1.6 4.8 0.00 0.03 0.03 77 1018.6
20260903142726 31 245 0.0 3.2 0.00 0.03 0.03 77 1018.6
20260903142223 30 43 1.6 4.8 0.00 0.03 0.03 79 1018.7
20260903141718 30 345 3.2 3.2 0.00 0.03 0.03 78 1018.5
20260903141213 31 279 3.2 3.2 0.00 0.03 0.03 77 1018.4
20260903140708 31 55 0.0 1.6 0.00 0.03 0.03 78 1018.2
20260903140203 30 233 0.0 0.0 0.00 0.03 0.03 77 1018.3
20260903135659 30 118 1.6 4.8 0.00 0.03 0.03 80 1018.2
20260903135154 30 218 0.0 3.2 0.00 0.03 0.03 80 1018.3
20260903134652 31 204 0.0 0.0 0.00 0.03 0.03 80 1018.2
20260903134143 30 60 0.0 1.6 0.00 0.03 0.03 80 1018.5
20260903133641 29 228 1.6 1.6 0.00 0.03 0.03 84 1018.2
20260903133136 29 172 0.0 3.2 0.00 0.03 0.03 84 1018.4
20260903132631 29 206 0.0 1.6 0.00 0.03 0.03 85 1018.5
20260903132131 30 241 0.0 3.2 0.00 0.03 0.03 84 1018.5
20260903131625 29 215 0.0 0.0 0.00 0.03 0.03 85 1018.6
20260903131119 29 210 0.0 1.6 0.00 0.03 0.03 85 1018.7
20260903130616 28 185 0.0 0.0 0.00 0.03 0.03 87 1018.5
20260903130109 28 113 0.0 1.6 0.00 0.03 0.03 88 1018.6
20260903125607 27 181 0.0 1.6 0.00 0.03 0.03 89 1018.7
20260903125102 27 230 0.0 1.6 0.00 0.03 0.03 90 1018.5
20260903124557 27 205 0.0 1.6 0.00 0.03 0.03 92 1018.8
20260903124056 26 143 0.0 1.6 0.00 0.03 0.03 93 1018.8
20260903123556 26 171 0.0 1.6 0.00 0.03 0.03 94 1018.8
20260903123055 26 230 0.0 0.0 0.00 0.03 0.03 97 1018.7
20260903122555 25 197 0.0 0.0 0.00 0.03 0.03 99 1018.8
20260903122049 25 190 0.0 0.0 0.00 0.03 0.03 99 1018.8
20260903121543 25 169 0.0 0.0 0.00 0.03 0.03 99 1018.9
20260903121039 25 152 1.6 1.6 0.00 0.03 0.03 99 1018.9
20260903120537 25 175 0.0 1.6 0.00 0.03 0.03 99 1018.8
20260903120033 24 209 0.0 0.0 0.00 0.03 0.03 99 1018.9
20260903115531 24 208 0.0 0.0 0.00 0.03 0.03 99 1018.8
20260903115026 23 211 0.0 0.0 0.00 0.03 0.03 99 1018.8
20260903114521 23 211 0.0 0.0 0.00 0.03 0.03 99 1018.8
20260903114017 23 237 0.0 0.0 0.00 0.03 0.03 99 1018.5
20260903113513 23 237 0.0 0.0 0.00 0.03 0.03 99 1018.8
20260903113009 23 237 0.0 0.0 0.00 0.03 0.03 99 1018.6
20260903112504 23 237 0.0 0.0 0.00 0.03 0.03 99 1018.5
20260903112003 23 237 0.0 0.0 0.00 0.03 0.03 99 1018.4
20260903111457 23 224 0.0 0.0 0.00 0.03 0.03 99 1018.3
20260903110954 23 224 0.0 0.0 0.00 0.03 0.03 99 1018.4
20260903110449 22 224 0.0 0.0 0.13 0.03 0.03 99 1018.2
20260903105943 22 224 0.0 0.0 0.13 0.03 0.03 99 1018.2
20260903105439 23 225 0.0 0.0 0.00 0.00 0.00 99 1018.2
20260903104938 23 227 0.0 0.0 0.00 0.00 0.00 99 1018.2
20260903104437 22 235 0.0 0.0 0.00 0.00 0.00 99 1018.2
20260903103935 22 238 0.0 0.0 0.00 0.00 0.00 99 1018.0
20260903103430 22 239 0.0 0.0 0.00 0.00 0.00 99 1018.1
20260903102926 22 239 0.0 0.0 0.00 0.00 0.00 99 1018.0
20260903102421 22 239 0.0 0.0 0.00 0.00 0.00 99 1018.2
20260903101920 22 219 0.0 0.0 0.00 0.00 0.00 99 1018.0
20260903101415 22 218 0.0 0.0 0.00 0.00 0.00 99 1018.2
20260903100910 22 218 0.0 0.0 0.00 0.00 0.00 99 1018.0
20260903100405 22 218 0.0 0.0 0.00 0.00 0.00 99 1018.0
20260903095902 23 218 0.0 0.0 0.00 0.00 0.00 99 1018.2
20260903095356 22 225 0.0 0.0 0.00 0.00 0.00 99 1018.4
20260903094851 22 231 0.0 0.0 0.00 0.00 0.00 99 1018.4
20260903094346 23 233 0.0 0.0 0.00 0.00 0.00 99 1018.2
20260903093842 22 232 0.0 0.0 0.00 0.00 0.00 99 1018.1
20260903093337 23 231 0.0 0.0 0.00 0.00 0.00 99 1018.3
20260903092832 23 233 0.0 0.0 0.00 0.00 0.00 99 1018.2
20260903092326 23 231 0.0 0.0 0.00 0.00 0.00 99 1018.0
20260903091825 23 231 0.0 0.0 0.00 0.00 0.00 99 1018.0
20260903091319 23 231 0.0 0.0 0.00 0.00 0.00 99 1017.8